Location: ??????
(41.3794°N, 22.5014°E)
Time: 08:10:23
(UTC+00:00)

Okean O Rocket - Pass Details

Date: 30 November 2020
Orbit: 623 x 644 km, 98.2° (Epoch: 17 January)

Event Time Altitude Azimuth Distance (km) Brightness Sun altitude
Rises 15:55:57 0° 164° (SSE) 2,894 5.1 -10.1°
Reaches altitude 10° 15:58:07 10° 163° (SSE) 1,994 4.2 -10.5°
Maximum altitude 16:02:28 84° 77° (ENE) 638 1.5 -11.3°
Drops below altitude 10° 16:06:52 10° 348° (NNW) 2,021 4.1 -12.1°
Sets 16:09:05 0° 348° (NNW) 2,938 5.0 -12.4°
